Regional Weather Roundup
Issued by NWS

Home | Current Version | Previous Version | Graphics & Text | Print | Product List | Glossary On
Versions: 1 2 3 4 5 6 7 8 9 10 11 12 13 14 15 16 17 18 19 20 21 22 23 24 25 26 27 28 29 30 31 32 33 34 35 36 37 38 39 40 41 42 43 44 45 46 47 48 49 50
000
ASUS43 KMKX 231621
RWRWI

WISCONSIN REGIONAL WEATHER ROUNDUP
NATIONAL WEATHER SERVICE MILWAUKEE/SULLIVAN WI
1100 AM CDT SAT JUL 23 2016

NOTE: "FAIR" INDICATES FEW OR NO CLOUDS BELOW 12,000 FEET WITH NO
SIGNIFICANT WEATHER AND/OR OBSTRUCTIONS TO VISIBILITY.

WIZ001-002-006>008-014>016-023>028-231700-
NORTHWEST WISCONSIN

CITY           SKY/WX    TMP DP  RH WIND       PRES   REMARKS
SUPERIOR ARPT  MOSUNNY   73  62  68 NE12G17   29.90F
ASHLAND        CLOUDY    78  68  71 N8        29.94F HX  80
HAYWARD        CLOUDY    81  63  54 SE9       29.95R HX  82
SIREN          CLOUDY    81  66  61 SE9       29.91R HX  83
CUMBERLAND     CLOUDY    77  68  73 SE9       29.95S
RICE LAKE      CLOUDY    79  68  70 SE12      29.98S HX  81
CHETEK         CLOUDY    80  71  74 SE9       29.97R HX  83
LADYSMITH      CLOUDY    85  68  57 SE8       29.99R HX  88
EAU CLAIRE     CLOUDY    80  68  66 SE9       29.95R HX  83
MENOMONIE      CLOUDY    79  69  70 SE7       29.97R HX  82
NEW RICHMOND   CLOUDY    77  66  68 SE9       29.93R
OSCEOLA        CLOUDY    78  67  70 SE12      29.92R
$$

WIZ003>005-009-010-017-018-231700-
NORTH CENTRAL WISCONSIN

CITY           SKY/WX    TMP DP  RH WIND       PRES   REMARKS
MANITOWISH WTR SUNNY     81  61  49 SE6       29.98F HX  82
ARBOR VITAE    SUNNY     82  59  44 SE8       30.00S HX  82
WOODRUFF       SUNNY     82  59  44 SE8       30.00S HX  82
RHINELANDER    SUNNY     83  57  41 SE9       30.02R HX  82
EAGLE RIVER    SUNNY     82  56  40 E7        30.00S HX  81
LAND O LAKES   SUNNY     82  55  38 SE6       30.00F HX  81
PHILLIPS       CLOUDY    82  64  55 SE7       29.97S HX  83
TOMAHAWK       CLOUDY    82  61  49 CALM      30.01R HX  82
MEDFORD        CLOUDY    81  69  67 SE5       30.01R HX  84
MERRILL        CLOUDY    83  64  53 S8        30.01R HX  84
$$

WIZ029-030-035-036-043>047-231700-
CENTRAL WISCONSIN

CITY           SKY/WX    TMP DP  RH WIND       PRES   REMARKS
WAUSAU         MOSUNNY   84  64  50 S6        29.99R HX  85
MOSINEE        SUNNY     82  68  61 SE5       30.01R HX  85
MARSHFIELD     CLOUDY    84  69  60 S10       30.01R HX  88
STEVENS POINT  CLOUDY    83  67  58 SE7       30.01R HX  85
WAUPACA        MOSUNNY   87  66  50 SE7       29.99S HX  89
WAUTOMA        CLOUDY    84  70  62 E6        30.00S HAZE    HX  88
WISC RAPIDS    CLOUDY    86  65  49 S6        30.01R HX  88
CAMP DOUGLAS   LGT RAIN  79  73  83 S3        30.00R HX  82
$$

WIZ011>013-019>022-031-037>040-048>050-231700-
NORTHEAST WISCONSIN

CITY           SKY/WX    TMP DP  RH WIND       PRES   REMARKS
ANTIGO         CLOUDY    82  62  50 E3        30.02R HX  82
SHAWANO        SUNNY     86  61  42 E8        29.99S HX  86
OCONTO         SUNNY     80  62  53 E7        29.97S HX  81
STURGEON BAY   SUNNY     84  67  56 SE6       29.98F HX  86
GREEN BAY      SUNNY     84  71  65 SE6       29.98S HX  89
MANITOWOC      SUNNY     83  64  52 SE7       30.00R HX  84
APPLETON       MOSUNNY   84  61  45 SE9       29.97R HX  84
CLINTONVILLE   CLOUDY    84  63  48 E6        29.99S HX  85
OSHKOSH        CLOUDY    83  69  62 E6        29.97F HX  86
$$

WIZ032>034-041-042-053>061-231700-
SOUTHWEST WISCONSIN

CITY           SKY/WX    TMP DP  RH WIND       PRES   REMARKS
LA CROSSE      RAIN      73  71  93 E3        29.96S
SPARTA         CLOUDY    77  71  82 CALM      29.99S
VIROQUA        CLOUDY    70  70 100 E9        30.01R
BOSCOBEL       LGT RAIN  71  70  96 SW6       30.00S
PRAIRIE DU CHI HVY RAIN  71  70  96 NW8       29.99R
PLATTEVILLE    PTSUNNY   78  78 100 N6        30.00S HX  82
$$

WIZ056-057-062-063-064-067-068-231700-
SOUTH CENTRAL WISCONSIN

CITY           SKY/WX    TMP DP  RH WIND       PRES   REMARKS
REEDSBURG      LGT RAIN  77  77 100 CALM      30.00R
BARABOO/DELLS  CLOUDY    78  76  93 CALM      30.00R FOG     HX  80
LONE ROCK      TSTM      76  73  91 W5        30.00S
MINERAL POINT  RAIN      77  73  88 W5        30.03R
MADISON        CLOUDY    82  78  88 W3        29.99S HX  91
MIDDLETON      CLOUDY    82  78  88 CALM      30.01R HX  91
WATERTOWN      CLOUDY    79  79 100 E3        29.98F HX  84
MONROE         CLOUDY    81  77  89 SE3       30.00S HX  88
JANESVILLE     PTSUNNY   84  75  74 SE5       29.98S HX  92
$$

WIZ051-052-058>065-066-070>072-231700-
SOUTHEAST WISCONSIN

CITY           SKY/WX    TMP DP  RH WIND       PRES   REMARKS
MILWAUKEE      CLOUDY    88  74  63 SE7       29.98R HX  96
WAUKESHA       MOSUNNY   86  66  51 CALM      30.00R HX  88
MILWAUKEE/TIMM MOSUNNY   88  68  51 SE6       29.98S HX  91
RACINE         CLOUDY    87  76  69 E7        30.00R HX  97
BURLINGTON     CLOUDY    87  76  69 SE5       29.98F HX  96
KENOSHA        CLOUDY    87  76  69 E8        29.99R HX  97
FOND DU LAC    CLOUDY    86  70  58 CALM      29.98S HX  90
SHEBOYGAN      MOSUNNY   85  69  58 NE9       29.99S HX  89
WEST BEND      CLOUDY    88  70  55 SE5       29.99F HX  92
JUNEAU         CLOUDY    81  78  88 SW6       30.01S HX  89
$$

LSZ147-162-231700-
LAKE SUPERIOR

STATION/POSITION TIME  TEMP    WIND        PRES    WAVE
                       AIR SEA DIR/SP/G            HT/PER
                 (UTC) (F)     (DEG/KT/KT) (MB)    (FT/S)
W MID LAKE BUOY  1550   62 58   70/ 12/ 14 1014.1F
DEVILS ISLAND    1600   63      60/ 13/ 15 1014.0F
SAXON HARBOR     1540   72     360/  3/  3 1013.5F
$$

LMZ867-665-643>646-231700-
LAKE MICHIGAN

STATION/POSITION TIME  TEMP    WIND        PRES    WAVE
                       AIR SEA DIR/SP/G            HT/PER
                 (UTC) (F)     (DEG/KT/KT) (MB)    (FT/S)
CHAMBERS ISLAND  1500   75      10/  5/  6 1015.2F
S GREEN BAY BUOY 1600   75 75   50/  8/ 10   N/A
N MID LAKE BUOY  1550   70 70   50/  4/  6 1014.6F   1
NORTHPORT PIER   1500   73     330/  4/  6 1015.6S
KEWAUNEE LAKESHO 1500   75      40/  3/  4 1015.0F
SHEBOYGAN LAKESH 1600   71      10/  6/  7 1015.6R
PORT WASHINGTON  1500   70      60/  3/  5 1015.9
MILWAUKEE LAKESH 1610   73     350/  3/  3   N/A
S MID LAKE BUOY  1550   78 78   90/  2/  2 1015.1R   0
KENOSHA   LAKESH 1600   78     150/  6/  7 1014.9S
$$

TC  - TEMPERATURE IN CELSIUS
VSB - VISIBILITY IN STATUTE MILES
WCI - WIND CHILL INDEX
HX  - HEAT INDEX





USA.gov is the U.S. government's official web portal to all federal, state and local government web resources and services.